Location: Fazenda Monte Alegre
(4.8500°S, 38.0333°W)
Time: 14:38:44
(UTC+00:00)

Skynet4D Del rocket - Pass Details

Date: 24 September 2020
Orbit: 763 x 1291 km, 26.9° (Epoch: 19 October)

Event Time Altitude Azimuth Distance (km) Brightness Sun altitude
Rises 21:25:21 0° 240° (WSW) 4,149 8.4 -15.2°
Reaches altitude 10° 21:28:22 10° 238° (WSW) 3,124 7.6 -16.0°
Maximum altitude 21:36:08 79° 152° (SSE) 1,108 4.2 -17.9°
Enters shadow 21:40:01 28° 69° (ENE) 1,799 4.8 -18.9°
